Location: Codford Saint Peter
(51.1597°N, 2.0531°W)
Time: 15:54:18
(UTC+00:00)

Cosmos 2297 Rocket - Visible Passes

Search period start: 30 November 2021 00:00
Search period end: 10 December 2021 00:00
Orbit: 839 x 843 km, 71.0° (Epoch: 30 November)

Date Brightness Start Highest point End Pass type
(mag) Time Alt. Az. Time Alt. Az. Time Alt. Az.
30 Nov 4.2 05:54:48 10° NNW 05:58:49 19° NNE 06:02:51 10° ENE visible
01 Dec 4.3 05:39:40 10° NNW 05:43:37 19° NNE 05:47:34 10° ENE visible
02 Dec 4.3 05:24:32 10° NNW 05:28:25 18° NNE 05:32:17 10° ENE visible
02 Dec 2.7 07:08:02 10° NNW 07:13:41 61° NE 07:19:17 10° SE visible
03 Dec 4.4 05:09:40 11° N 05:13:13 18° NNE 05:17:00 10° ENE visible
03 Dec 2.8 06:52:54 10° NNW 06:58:31 58° NE 07:04:06 10° SE visible
04 Dec 4.4 04:55:00 12° N 04:58:01 17° NNE 05:01:44 10° ENE visible
04 Dec 2.8 06:37:45 10° NNW 06:43:22 56° NE 06:48:55 10° SE visible
05 Dec 4.4 04:40:20 13° N 04:42:48 17° NNE 04:46:26 10° ENE visible
05 Dec 2.9 06:22:37 10° NNW 06:28:11 54° NE 06:33:44 10° SE visible
06 Dec 4.4 04:25:42 14° N 04:27:36 17° NNE 04:31:09 10° ENE visible
06 Dec 2.9 06:07:31 10° NNW 06:13:02 52° NE 06:18:33 10° SE visible
07 Dec 4.4 04:11:06 15° NNE 04:12:23 16° NNE 04:15:51 10° ENE visible
07 Dec 3.0 05:52:54 13° NNW 05:57:52 50° NE 06:03:21 10° SE visible
08 Dec 4.5 03:56:32 16° NNE 03:57:11 16° NNE 04:00:34 10° ENE visible
08 Dec 3.0 05:38:21 16° NNW 05:42:42 48° NE 05:48:10 10° SE visible
09 Dec 4.6 03:42:00 15° NNE 03:42:00 15° NNE 03:45:16 10° ENE visible
09 Dec 3.1 05:23:49 20° NNW 05:27:31 46° NE 05:32:58 10° SE visible
09 Dec 2.8 07:06:19 10° NW 07:11:31 38° WSW 07:16:42 10° S visible
